• In Hungary
  • List of Countries
  • For 7 days
  • Water Temperature
  • Satellite Maps
  • Weather Map
  • News
  • Weather Widgets
  • user-avatar
    Login

    Hourly Weather Obelna

    Today, 26 September, Wednesday

    Time Temperature Precipitation Wind Pressure Humidity
    00:00 +4°C° 0 mm 3 mps 747 mmHg 87%
    01:00 +3°C° 0 mm 3 mps 747 mmHg 89%
    02:00 +3°C° 0 mm 3 mps 748 mmHg 91%
    03:00 +2°C° 0 mm 3 mps 748 mmHg 92%
    04:00 +2°C° 0 mm 3 mps 749 mmHg 93%
    05:00 +2°C° 0 mm 3 mps 749 mmHg 95%
    06:00 +2°C° 0 mm 3 mps 750 mmHg 89%
    07:00 +3°C° 0 mm 3 mps 751 mmHg 84%
    08:00 +4°C° 0 mm 3 mps 751 mmHg 78%
    09:00 +6°C° 0 mm 4 mps 751 mmHg 69%
    10:00 +7°C° 0 mm 4 mps 752 mmHg 61%
    11:00 +10°C° 0 mm 4 mps 752 mmHg 52%
    12:00 +10°C° 0 mm 4 mps 752 mmHg 51%
    13:00 +10°C° 0 mm 4 mps 752 mmHg 50%
    14:00 +11°C° 0 mm 4 mps 751 mmHg 50%
    15:00 +10°C° 0 mm 3 mps 751 mmHg 54%
    16:00 +10°C° 0 mm 3 mps 751 mmHg 58%
    17:00 +9°C° 0 mm 3 mps 751 mmHg 62%
    18:00 +8°C° 0 mm 3 mps 751 mmHg 64%
    19:00 +7°C° 0 mm 4 mps 750 mmHg 65%
    20:00 +6°C° 0 mm 4 mps 750 mmHg 67%
    21:00 +6°C° 0 mm 5 mps 749 mmHg 64%
    22:00 +6°C° 0 mm 5 mps 749 mmHg 61%
    23:00 +5°C° 0 mm 6 mps 748 mmHg 58%

    Tomorrow, 27 September, Thursday

    Time Temperature Precipitation Wind Pressure Humidity
    00:00 +5°C° 0.1 mm 6 mps 747 mmHg 60%
    01:00 +5°C° 0.1 mm 7 mps 746 mmHg 63%
    02:00 +5°C° 0.1 mm 7 mps 746 mmHg 65%
    03:00 +5°C° 0.2 mm 8 mps 745 mmHg 69%
    04:00 +5°C° 0.2 mm 8 mps 743 mmHg 73%
    05:00 +5°C° 0.2 mm 9 mps 742 mmHg 76%
    06:00 +5°C° 0.3 mm 9 mps 742 mmHg 79%
    07:00 +5°C° 0.3 mm 9 mps 741 mmHg 82%
    08:00 +5°C° 0.3 mm 9 mps 741 mmHg 85%
    09:00 +6°C° 0.3 mm 9 mps 741 mmHg 86%
    10:00 +6°C° 0.3 mm 8 mps 741 mmHg 87%
    11:00 +7°C° 0.3 mm 8 mps 741 mmHg 88%
    12:00 +8°C° 0.1 mm 7 mps 741 mmHg 86%
    13:00 +9°C° 0.1 mm 7 mps 741 mmHg 85%
    14:00 +9°C° 0.1 mm 7 mps 741 mmHg 84%
    15:00 +9°C° 0 mm 6 mps 741 mmHg 84%
    16:00 +9°C° 0 mm 5 mps 741 mmHg 84%
    17:00 +9°C° 0 mm 5 mps 742 mmHg 84%
    18:00 +10°C° 0 mm 4 mps 742 mmHg 87%
    19:00 +8°C° 0 mm 4 mps 742 mmHg 90%
    20:00 +8°C° 0 mm 4 mps 743 mmHg 94%
    21:00 +8°C° 0 mm 4 mps 743 mmHg 94%
    22:00 +7°C° 0 mm 4 mps 743 mmHg 94%
    23:00 +8°C° 0 mm 3 mps 743 mmHg 94%

    Day after tomorrow, 28 September, Friday

    Time Temperature Precipitation Wind Pressure Humidity
    00:00 +7°C° 0 mm 4 mps 743 mmHg 94%
    01:00 +7°C° 0 mm 4 mps 743 mmHg 95%
    02:00 +6°C° 0 mm 4 mps 743 mmHg 95%
    03:00 +7°C° 0 mm 4 mps 742 mmHg 94%
    04:00 +7°C° 0 mm 5 mps 742 mmHg 93%
    05:00 +7°C° 0 mm 6 mps 741 mmHg 92%
    06:00 +8°C° 0 mm 6 mps 741 mmHg 91%
    07:00 +9°C° 0 mm 7 mps 740 mmHg 90%
    08:00 +10°C° 0 mm 7 mps 740 mmHg 88%
    09:00 +10°C° 0.1 mm 7 mps 740 mmHg 88%
    10:00 +11°C° 0.1 mm 7 mps 740 mmHg 88%
    11:00 +11°C° 0.1 mm 8 mps 739 mmHg 87%
    12:00 +11°C° 0.1 mm 7 mps 739 mmHg 87%
    13:00 +12°C° 0.1 mm 7 mps 739 mmHg 87%
    14:00 +12°C° 0.1 mm 7 mps 739 mmHg 86%
    15:00 +13°C° 0.2 mm 6 mps 739 mmHg 87%
    16:00 +13°C° 0.2 mm 6 mps 739 mmHg 87%
    17:00 +13°C° 0.2 mm 5 mps 739 mmHg 88%
    18:00 +12°C° 0.4 mm 4 mps 740 mmHg 89%
    19:00 +12°C° 0.4 mm 4 mps 740 mmHg 90%
    20:00 +11°C° 0.4 mm 3 mps 741 mmHg 91%
    21:00 +10°C° 0.2 mm 2 mps 741 mmHg 92%
    22:00 +9°C° 0.2 mm 2 mps 742 mmHg 92%
    23:00 +9°C° 0.2 mm 1 mps 742 mmHg 93%

    29 September, Saturday

    Time Temperature Precipitation Wind Pressure Humidity
    00:00 +7°C° 0 mm 2 mps 743 mmHg 93%
    01:00 +7°C° 0 mm 2 mps 743 mmHg 94%
    02:00 +6°C° 0 mm 2 mps 744 mmHg 94%
    03:00 +5°C° 0 mm 2 mps 744 mmHg 93%
    04:00 +6°C° 0 mm 1 mps 744 mmHg 92%
    05:00 +6°C° 0 mm 1 mps 745 mmHg 92%
    06:00 +6°C° 0 mm 1 mps 745 mmHg 88%
    07:00 +6°C° 0 mm 2 mps 746 mmHg 83%
    08:00 +7°C° 0 mm 2 mps 746 mmHg 79%
    09:00 +9°C° 0 mm 2 mps 747 mmHg 72%
    10:00 +10°C° 0 mm 2 mps 747 mmHg 65%
    11:00 +12°C° 0 mm 2 mps 747 mmHg 59%
    12:00 +12°C° 0 mm 2 mps 748 mmHg 57%
    13:00 +13°C° 0 mm 2 mps 748 mmHg 55%
    14:00 +13°C° 0 mm 2 mps 748 mmHg 53%
    15:00 +12°C° 0 mm 2 mps 748 mmHg 59%
    16:00 +10°C° 0 mm 2 mps 748 mmHg 65%
    17:00 +9°C° 0 mm 2 mps 749 mmHg 71%
    18:00 +8°C° 0 mm 2 mps 749 mmHg 75%
    19:00 +7°C° 0 mm 2 mps 750 mmHg 78%
    20:00 +6°C° 0 mm 2 mps 751 mmHg 81%
    21:00 +5°C° 0 mm 2 mps 751 mmHg 81%
    22:00 +5°C° 0 mm 2 mps 751 mmHg 80%
    23:00 +4°C° 0 mm 2 mps 752 mmHg 79%

    30 September, Sunday

    Time Temperature Precipitation Wind Pressure Humidity
    00:00 +4°C° 0 mm 2 mps 752 mmHg 79%
    01:00 +3°C° 0 mm 2 mps 752 mmHg 79%
    02:00 +2°C° 0 mm 2 mps 753 mmHg 78%
    03:00 +2°C° 0 mm 2 mps 753 mmHg 79%
    04:00 +3°C° 0 mm 1 mps 753 mmHg 80%
    05:00 +2°C° 0 mm 1 mps 753 mmHg 81%
    06:00 +4°C° 0 mm 1 mps 754 mmHg 76%
    07:00 +5°C° 0 mm 1 mps 754 mmHg 70%
    08:00 +6°C° 0 mm 1 mps 754 mmHg 65%
    09:00 +8°C° 0 mm 1 mps 754 mmHg 57%
    10:00 +10°C° 0 mm 1 mps 754 mmHg 50%
    11:00 +11°C° 0 mm 1 mps 754 mmHg 43%
    12:00 +12°C° 0 mm 1 mps 754 mmHg 41%
    13:00 +12°C° 0 mm 1 mps 753 mmHg 38%
    14:00 +13°C° 0 mm 1 mps 753 mmHg 36%
    15:00 +11°C° 0 mm 1 mps 753 mmHg 40%
    16:00 +10°C° 0 mm 1 mps 752 mmHg 45%
    17:00 +9°C° 0 mm 1 mps 752 mmHg 50%
    18:00 +8°C° 0 mm 1 mps 752 mmHg 52%
    19:00 +7°C° 0 mm 1 mps 752 mmHg 54%
    20:00 +6°C° 0 mm 1 mps 752 mmHg 55%
    21:00 +5°C° 0 mm 2 mps 752 mmHg 57%
    22:00 +4°C° 0 mm 2 mps 752 mmHg 59%
    23:00 +4°C° 0 mm 2 mps 752 mmHg 60%

    1 October, Monday

    Time Temperature Precipitation Wind Pressure Humidity
    00:00 +4°C° 0 mm 2 mps 752 mmHg 62%
    01:00 +3°C° 0 mm 2 mps 751 mmHg 64%
    02:00 +3°C° 0 mm 2 mps 751 mmHg 65%
    03:00 +3°C° 0 mm 2 mps 751 mmHg 67%
    04:00 +3°C° 0 mm 2 mps 751 mmHg 69%
    05:00 +3°C° 0 mm 2 mps 751 mmHg 71%
    06:00 +4°C° 0 mm 2 mps 751 mmHg 68%
    07:00 +5°C° 0 mm 2 mps 751 mmHg 66%
    08:00 +7°C° 0 mm 2 mps 750 mmHg 63%
    09:00 +9°C° 0 mm 2 mps 750 mmHg 59%
    10:00 +10°C° 0 mm 2 mps 750 mmHg 55%
    11:00 +12°C° 0 mm 3 mps 750 mmHg 51%
    12:00 +14°C° 0 mm 2 mps 749 mmHg 49%
    13:00 +14°C° 0 mm 2 mps 749 mmHg 47%
    14:00 +15°C° 0 mm 2 mps 748 mmHg 45%
    15:00 +13°C° 0 mm 2 mps 748 mmHg 50%
    16:00 +12°C° 0 mm 2 mps 748 mmHg 55%
    17:00 +11°C° 0 mm 1 mps 748 mmHg 61%
    18:00 +9°C° 0 mm 2 mps 748 mmHg 62%
    19:00 +8°C° 0 mm 2 mps 748 mmHg 64%
    20:00 +7°C° 0 mm 2 mps 748 mmHg 66%
    21:00 +7°C° 0 mm 2 mps 748 mmHg 66%
    22:00 +7°C° 0 mm 2 mps 747 mmHg 66%
    23:00 +6°C° 0 mm 2 mps 747 mmHg 66%
    Show more